CW8614 Weather Reports


time (UTC)temp
C
wind
direction
speed
KPH
gust
KPH
rain 1hr
cm
rain 24hr
cm
rain mn
cm
humidity
%
barometer
mb
20260508210016 13 301 3.2 12.9 0.00 0.15 0.15 46 1010.8
20260508205016 12 278 3.2 12.9 0.00 0.15 0.15 47 1010.9
20260508204016 13 306 6.4 14.5 0.00 0.15 0.15 48 1010.8
20260508203016 13 292 6.4 14.5 0.00 0.15 0.15 47 1010.9
20260508202016 13 265 4.8 14.5 0.00 0.15 0.15 49 1011.0
20260508201016 12 293 8.0 17.7 0.00 0.15 0.15 49 1011.2
20260508200016 12 285 4.8 17.7 0.00 0.15 0.15 53 1011.3
20260508195036 12 279 4.8 14.5 0.00 0.15 0.15 54 1011.5
20260508194036 12 282 4.8 11.3 0.00 0.15 0.15 55 1011.3
20260508193016 11 312 4.8 14.5 0.00 0.15 0.15 58 1011.3
20260508192016 11 307 4.8 14.5 0.00 0.15 0.15 60 1011.5
20260508191036 12 325 6.4 16.1 0.00 0.15 0.15 58 1011.6
20260508190016 11 291 3.2 14.5 0.00 0.15 0.15 59 1011.5
20260508185036 11 293 6.4 17.7 0.00 0.15 0.15 60 1011.7
20260508184016 11 303 8.0 16.1 0.00 0.15 0.15 61 1011.9
20260508183036 10 281 6.4 16.1 0.00 0.15 0.15 63 1011.9
20260508182016 10 287 6.4 12.9 0.00 0.15 0.15 62 1012.0
20260508181016 10 259 4.8 12.9 0.00 0.15 0.15 64 1011.9
20260508180016 10 330 6.4 12.9 0.00 0.15 0.15 65 1011.9
20260508175016 10 281 3.2 11.3 0.00 0.15 0.15 66 1011.9
20260508174016 10 246 3.2 11.3 0.00 0.15 0.15 68 1011.9
20260508173016 9 254 1.6 11.3 0.00 0.15 0.15 71 1012.1
20260508172016 9 250 3.2 12.9 0.00 0.15 0.15 69 1012.3
20260508171016 9 274 4.8 9.7 0.00 0.15 0.15 70 1012.2
20260508170016 9 280 8.0 12.9 0.00 0.15 0.15 70 1012.2
20260508165016 9 310 1.6 11.3 0.00 0.15 0.15 73 1012.1
20260508164016 8 287 3.2 9.7 0.00 0.15 0.15 76 1012.1
20260508163056 8 266 3.2 8.0 0.00 0.15 0.15 75 1012.2
20260508162016 8 306 3.2 11.3 0.00 0.15 0.15 75 1012.3
20260508161016 8 267 4.8 9.7 0.00 0.15 0.15 76 1012.2
20260508160016 8 268 4.8 11.3 0.00 0.15 0.15 77 1012.3
20260508155016 7 295 3.2 11.3 0.03 0.15 0.15 81 1012.4
20260508154016 7 253 3.2 9.7 0.03 0.15 0.15 87 1012.5
20260508153016 7 263 3.2 14.5 0.03 0.15 0.15 87 1012.5
20260508152036 6 298 3.2 14.5 0.03 0.15 0.15 91 1012.4
20260508151016 6 278 3.2 9.7 0.03 0.15 0.15 90 1012.3
20260508150016 6 252 1.6 11.3 0.05 0.15 0.15 90 1012.4
20260508145016 6 252 3.2 11.3 0.03 0.13 0.13 88 1012.5
20260508144016 6 278 4.8 12.9 0.03 0.13 0.13 87 1012.5
20260508143016 6 272 6.4 16.1 0.05 0.13 0.13 85 1012.4
20260508142016 7 301 4.8 19.3 0.05 0.13 0.13 87 1012.2
20260508141016 7 306 1.6 9.7 0.05 0.13 0.13 90 1012.0
20260508140016 7 315 1.6 8.0 0.03 0.10 0.10 89 1012.0
20260508135016 7 304 3.2 6.4 0.03 0.10 0.10 87 1012.0
20260508134016 7 317 3.2 8.0 0.03 0.10 0.10 86 1012.0
20260508133016 7 311 1.6 6.4 0.00 0.08 0.08 85 1012.0
20260508132016 7 307 3.2 8.0 0.00 0.08 0.08 83 1012.0
20260508131016 7 318 3.2 8.0 0.00 0.08 0.08 83 1011.9
20260508130016 7 296 3.2 9.7 0.00 0.08 0.08 83 1011.9
20260508125016 7 247 1.6 4.8 0.00 0.08 0.08 85 1011.5
20260508124016 7 0.0 3.2 0.00 0.08 0.08 87 1011.3
20260508123016 7 101 0.0 3.2 0.00 0.08 0.08 86 1011.3
20260508122016 7 259 0.0 1.6 0.00 0.08 0.08 87 1011.5
20260508121016 7 246 0.0 1.6 0.00 0.08 0.08 91 1011.5
20260508120036 6 261 0.0 1.6 0.00 0.08 0.08 92 1011.5
20260508115016 6 226 0.0 4.8 0.00 0.08 0.08 94 1011.5
20260508114016 5 0.0 1.6 0.00 0.08 0.08 96 1011.6
20260508113016 5 0.0 1.6 0.00 0.08 0.08 96 1011.7
20260508112016 4 145 0.0 3.2 0.00 0.08 0.08 97 1011.7
20260508111016 4 252 0.0 3.2 0.00 0.08 0.08 97 1011.9
20260508110016 3 236 0.0 1.6 0.00 0.08 0.08 97 1011.8
20260508105016 3 0.0 1.6 0.00 0.08 0.08 97 1011.8
20260508104016 3 0.0 0.0 0.00 0.08 0.08 97 1011.6
20260508103016 2 0.0 1.6 0.00 0.08 0.08 97 1011.6
20260508102016 2 0.0 0.0 0.00 0.08 0.08 97 1011.7
20260508101016 2 0.0 0.0 0.00 0.08 0.08 96 1011.7
20260508100017 2 0.0 0.0 0.00 0.08 0.08 96 1011.5
20260508095016 2 0.0 0.0 0.00 0.08 0.08 96 1011.4
20260508094016 2 0.0 0.0 0.00 0.08 0.08 96 1011.3
20260508093036 2 0.0 0.0 0.00 0.08 0.08 95 1011.3
20260508092016 2 0.0 0.0 0.00 0.08 0.08 94 1011.4
20260508091016 2 0.0 0.0 0.00 0.08 0.08 94 1011.3
20260508090036 3 0.0 0.0 0.00 0.08 0.08 94 1011.4
20260508085036 3 0.0 0.0 0.00 0.08 0.08 95 1011.3
20260508084016 3 0.0 0.0 0.00 0.08 0.08 94 1011.2
20260508083036 4 0.0 0.0 0.00 0.08 0.08 94 1011.3
20260508082016 4 235 0.0 3.2 0.00 0.08 0.08 94 1011.3
20260508081016 4 242 0.0 6.4 0.00 0.08 0.08 94 1011.4
20260508080016 4 252 0.0 4.8 0.00 0.08 0.08 94 1011.4
20260508075036 5 246 0.0 4.8 0.00 0.08 0.08 94 1011.5
20260508074016 5 254 0.0 1.6 0.05 0.08 0.08 93 1011.6
20260508073036 5 256 0.0 1.6 0.08 0.08 0.08 93 1011.4
20260508072016 5 222 0.0 1.6 0.08 0.08 0.08 92 1011.5
20260508071016 5 0.0 1.6 0.08 0.08 0.08 91 1011.6
20260508070016 5 272 1.6 6.4 0.08 0.08 0.08 90 1011.5
20260508065016 5 327 3.2 6.4 0.08 0.08 0.08 88 1011.6
20260508064016 5 319 4.8 17.7 0.03 0.03 0.03 83 1011.6
20260508063017 6 315 9.7 19.3 0.00 0.00 0.00 77 1011.5
20260508062016 6 330 6.4 16.1 0.00 0.00 0.00 74 1011.2
20260508061016 6 319 6.4 12.9 0.00 0.00 0.00 73 1011.1
20260508060016 6 323 4.8 11.3 0.00 0.00 0.00 73 1010.9
20260508055016 6 311 1.6 3.2 0.00 0.00 0.00 79 1010.9
20260508054036 5 0.0 0.0 0.00 0.00 0.00 80 1010.8
20260508053017 5 0.0 0.0 0.00 0.00 0.00 80 1010.8
20260508052036 5 0.0 0.0 0.00 0.00 0.00 78 1010.9
20260508051036 5 0.0 0.0 0.00 0.00 0.00 77 1010.9
20260508050016 5 0.0 0.0 0.00 0.00 0.00 76 1010.9
20260508045016 5 240 0.0 1.6 0.00 0.00 0.00 76 1010.9
20260508044017 5 0.0 0.0 0.00 0.00 0.00 79 1010.8
20260508043017 5 0.0 0.0 0.00 0.00 0.00 79 1010.7
20260508042016 5 0.0 0.0 0.00 0.00 0.00 80 1010.7
20260508041036 4 0.0 1.6 0.00 0.00 0.00 81 1010.6
20260508040036 3 0.0 0.0 0.00 0.00 0.00 82 1010.6
20260508035036 3 0.0 0.0 0.00 0.00 0.00 81 1010.7
20260508034016 3 0.0 0.0 0.00 0.00 0.00 79 1010.6
20260508033056 3 0.0 0.0 0.00 0.00 0.00 77 1010.5
20260508032016 3 0.0 0.0 0.00 0.00 0.00 75 1010.4
20260508031016 4 0.0 0.0 0.00 0.00 0.00 73 1010.3
20260508030016 4 0.0 0.0 0.00 0.00 0.00 73 1010.2
20260508025016 5 0.0 0.0 0.00 0.00 0.00 69 1010.0
20260508024016 5 0.0 0.0 0.00 0.00 0.00 67 1010.0
20260508023016 6 0.0 0.0 0.00 0.00 0.00 67 1010.0
20260508022016 6 0.0 0.0 0.00 0.00 0.00 60 1010.2
20260508021016 7 0.0 0.0 0.00 0.00 0.00 58 1010.3
20260508020016 7 0.0 0.0 0.00 0.00 0.00 58 1010.4
20260508015016 7 0.0 0.0 0.00 0.00 0.00 57 1010.4
20260508014016 8 0.0 3.2 0.00 0.00 0.00 51 1010.3
20260508013016 8 321 0.0 3.2 0.00 0.00 0.00 50 1010.4
20260508012016 9 263 0.0 3.2 0.00 0.00 0.00 48 1010.4
20260508011016 9 304 0.0 3.2 0.00 0.00 0.00 48 1010.3
20260508010016 9 289 0.0 3.2 0.00 0.00 0.00 48 1010.2
20260508005016 9 309 0.0 4.8 0.00 0.00 0.00 47 1010.2
20260508004016 10 296 3.2 8.0 0.00 0.00 0.00 46 1010.1
20260508003016 10 315 1.6 6.4 0.00 0.00 0.00 45 1010.1
20260508002036 10 321 3.2 12.9 0.00 0.00 0.00 45 1009.9
20260508001016 10 330 1.6 6.4 0.00 0.00 0.00 45 1009.9
20260508000036 10 322 1.6 6.4 0.00 0.00 0.00 44 1009.8
20260507235036 10 319 1.6 8.0 0.00 0.00 0.00 44 1009.8
20260507234016 10 311 3.2 8.0 0.00 0.00 0.00 42 1009.6
20260507233016 10 323 3.2 9.7 0.00 0.00 0.00 42 1009.5
20260507232016 10 329 3.2 9.7 0.00 0.00 0.00 41 1009.6
20260507231016 11 335 4.8 12.9 0.00 0.00 0.00 39 1009.6
20260507230036 12 349 4.8 9.7 0.00 0.00 0.00 38 1009.6
20260507225016 12 348 3.2 11.3 0.00 0.00 0.00 38 1009.5
20260507224016 12 333 6.4 14.5 0.00 0.00 0.00 37 1009.5
20260507223016 12 315 6.4 16.1 0.00 0.00 0.00 37 1009.5
20260507222017 12 330 6.4 17.7 0.00 0.00 0.00 36 1009.5
20260507221016 12 351 4.8 17.7 0.00 0.00 0.00 36 1009.5
20260507220016 12 341 6.4 17.7 0.00 0.00 0.00 38 1009.5
20260507215016 12 323 4.8 16.1 0.00 0.00 0.00 37 1009.6
20260507214016 12 342 8.0 16.1 0.00 0.00 0.00 37 1009.6
20260507213016 12 347 8.0 19.3 0.00 0.00 0.00 37 1009.6
20260507212016 12 318 6.4 16.1 0.00 0.00 0.00 36 1009.7
20260507211016 12 345 4.8 16.1 0.00 0.00 0.00 39 1009.6